Regional Weather Roundup
Issued by NWS San Angelo, TX

Home | Current Version | Previous Version | Text Only | Print | Product List | Glossary On
Versions: 1 2 3 4 5 6 7 8 9 10 11 12 13 14 15 16 17 18 19 20 21 22 23 24 25 26 27 28 29 30 31 32 33 34 35 36 37 38 39 40 41 42 43 44 45 46 47 48 49 50
000
ASUS44 KSJT 010402
RWRSJT
WEST CENTRAL TEXAS REGIONAL WEATHER ROUNDUP
NATIONAL WEATHER SERVICE SAN ANGELO TX
1100 PM CDT TUE MAY 31 2016

NOTE: "FAIR" INDICATES FEW OR NO CLOUDS BELOW 12,000 FEET WITH NO
SIGNIFICANT WEATHER AND/OR OBSTRUCTIONS TO VISIBILITY.

TXZ049-054-064>066-071>073-076>078-098-099-113-114-127-128-139-140-
154-155-168>170-010500
...LOCATIONS ACROSS WEST CENTRAL TEXAS...

CITY           SKY/WX    TMP DP  RH WIND       PRES   REMARKS
SAN ANGELO     CLOUDY    68  63  84 S9        29.87R
ABILENE        CLOUDY    67  65  93 E7        29.91R
DYESS AFB      CLOUDY    67  63  85 NE3       29.91R
JUNCTION       PTCLDY    68  66  93 E6        29.88S
SWEETWATER     NOT AVBL
BROWNWOOD      NOT AVBL
COLEMAN        CLOUDY    67  66  96 E5        29.90R
SONORA         NOT AVBL
OZONA          NOT AVBL
BRADY          NOT AVBL
$$

TEXAS PANHANDLE/OKLAHOMA PANHANDLE

CITY           SKY/WX    TMP DP  RH WIND       PRES   REMARKS
AMARILLO       CLOUDY    63  56  78 E12       30.03R
BORGER         CLOUDY    67  56  67 NE10      30.03R
CANADIAN       CLOUDY    65  58  77 E3        30.00S
DALHART        CLOUDY    64  55  72 E12       30.06R
DUMAS          CLOUDY    62  53  72 E12       30.05R
GUYMON         NOT AVBL
HEREFORD       CLOUDY    66  58  74 E12       30.03R
PAMPA          NOT AVBL
PERRYTON       NOT AVBL
$$

SOUTHERN PANHANDLE/SOUTH PLAINS/ROLLING PLAINS

CITY           SKY/WX    TMP DP  RH WIND       PRES   REMARKS
LUBBOCK        LGT RAIN  69  62  78 SE8       29.99R
SNYDER           N/A     68  65  89 SE6       29.91R
CHILDRESS      MOCLDY    69  65  86 NE10      29.96R
SEMINOLE       NOT AVBL
$$

PERMIAN BASIN

CITY           SKY/WX    TMP DP  RH WIND       PRES   REMARKS
MIDLAND        LGT RAIN  66  60  81 NW21      29.98R
ODESSA         TSTM      62  58  86 N25G37    30.00R FOG
WINK           CLOUDY    67  60  78 E14       29.92R
$$

FAR WEST/SOUTHWEST MOUNTAINS/TRANS PECOS

CITY           SKY/WX    TMP DP  RH WIND       PRES   REMARKS
ALPINE         NOT AVBL
DRYDEN           N/A     70  61  73 W3        29.91R
EL PASO        MOCLDY    76  40  27 N15       29.92R
FORT STOCKTON  NOT AVBL
GUADALUPE PASS NOT AVBL
MARFA          CLOUDY    58  53  84 NE7       30.06F
PECOS          NOT AVBL
$$

DALLAS/FORT WORTH METROPLEX

CITY           SKY/WX    TMP DP  RH WIND       PRES   REMARKS
DFW AIRPORT    MOCLDY    70  65  84 E9        29.88F
FTW MEACHAM    MOCLDY    69  65  86 E7        29.89S
DAL-EXECUTIVE  CLOUDY    67  65  93 E10       29.89F
GRAND PRAIRIE  PTCLDY    68  68 100 E10G16    29.91F
ADDISON        NOT AVBL
MESQUITE       CLOUDY    67  67  99 E7        29.91F
LANCASTER      CLOUDY    66  65  94 E7        29.92F
$$

NORTH CENTRAL TEXAS

CITY           SKY/WX    TMP DP  RH WIND       PRES   REMARKS
SHRMAN/DENISON NOT AVBL
GAINESVILLE    NOT AVBL
BRIDGEPORT     MOCLDY    67  67 100 E6        29.93F
DENTON         CLOUDY    68  66  93 E3        29.91S
WAXAHACHIE     PTCLDY    67  67 100 E7        29.91F
GRANBURY       NOT AVBL
$$

WESTERN NORTH TEXAS

CITY           SKY/WX    TMP DP  RH WIND       PRES   REMARKS
WICHITA FALLS  CLOUDY    67  65  93 E7        29.94R
VERNON         PTCLDY    69  62  76 NE3       29.96R
BRECKENRIDGE   NOT AVBL
COMANCHE       CLOUDY    68  68 100 NE7       29.91R
$$

CENTRAL AND SOUTH CENTRAL TEXAS

CITY           SKY/WX    TMP DP  RH WIND       PRES   REMARKS
AUSTIN/BERGSTM MOCLDY    68  67  96 CALM      29.87F
WACO           CLOUDY    69  67  93 E10       29.90R
HILLSBORO      CLOUDY    67  65  96 E14G23    29.90S
TEMPLE         NOT AVBL
KILLEEN-GRAY   CLOUDY    69  68  94 E9        29.88S
FORT HOOD      MOCLDY    68  67  98 E7        29.87R
GEORGETOWN     MOCLDY    70  66  88 N3        29.89R
LAGO VISTA     FOG       69  68  96 CALM      29.88F VSB 1
SAN MARCOS     CLOUDY    66  64  94 N5        29.90R
NEW BRAUNFELS  CLOUDY    69  67  93 NE7       29.87R
RANDOLPH AFB   CLOUDY    69  69 100 CALM      29.89R
SAN ANTONIO    CLOUDY    71  67  87 E7        29.89R
STINSON        CLOUDY    71  67  87 E5        29.86R
PLEASANTON     NOT AVBL
LA GRANGE      NOT AVBL
GIDDINGS       PTCLDY    68  67  96 CALM      29.90S
$$

EAST TEXAS

CITY           SKY/WX    TMP DP  RH WIND       PRES   REMARKS
PARIS          CLOUDY    66  57  72 SW8       29.92F
CLARKSVILLE    NOT AVBL
TYLER          MOCLDY    70  65  84 NE7       29.91F
LONGVIEW       CLOUDY    69  66  90 CALM      29.91F
PALESTINE      LGT RAIN  69  68  94 N7        29.94F
NACOGDOCHES    CLOUDY    73  72  94 W6        29.92R
$$

TEXAS HILL COUNTRY AND EDWARDS PLATEAU

CITY           SKY/WX    TMP DP  RH WIND       PRES   REMARKS
LLANO          NOT AVBL
HORSESHOE BAY  FAIR      68  67  96 S3        29.87F
KERRVILLE      PTCLDY    69  67  95 SE3       29.90R
FREDERICKSBRG  NOT AVBL
ROCKSPRINGS    NOT AVBL
HONDO          CLOUDY    71  68  90 E7        29.89R
UVALDE         CLOUDY    70  68  94 E7        29.86R
DEL RIO        CLOUDY    74  69  85 E8        29.83R
$$

SOUTHEAST TEXAS

CITY           SKY/WX    TMP DP  RH WIND       PRES   REMARKS
COLLEGE STN    CLOUDY    69  68  96 SW3       29.88S
CALDWELL       NOT AVBL
CROCKETT       NOT AVBL
BRENHAM        CLOUDY    72  71  98 CALM      29.87F FOG
HUNTSVILLE     CLOUDY    71  68  90 CALM      29.84F
CONROE         LGT RAIN  72  71  97 SE3       29.86F
HOUSTON BUSH   CLOUDY    77  71  82 S7        29.87F
HOUSTON HOBBY  CLOUDY    79  72  79 SE7       29.86F
PERLAND        CLOUDY    80  72  76 SE9       29.90F
WHARTON        NOT AVBL
$$

THE UPPER TEXAS COAST

CITY           SKY/WX    TMP DP  RH WIND       PRES   REMARKS
ORANGE         CLOUDY    74  70  86 SW3       29.95R
PORT ARTHUR    CLOUDY    75  71  87 CALM      29.93R
GALVESTON      CLOUDY    77  74  90 SE15      29.94S
ANGLETON       LGT RAIN  77  74  90 SE6       29.90F
BAY CITY       DRIZZLE   73  72  98 S5        29.91F
$$

TEXAS COASTAL BEND, RIO GRANDE PLAINS DEEP SOUTH TEXAS

CITY           SKY/WX    TMP DP  RH WIND       PRES   REMARKS
VICTORIA       CLOUDY    73  68  84 S7        29.84R
BEEVILLE       FAIR      72  72  99 E7        29.84R
ROCKPORT       TSTM      75  72  90 E29G38    29.77F
PORT ARANSAS   NOT AVBL
PORT LAVACA    LGT RAIN  71  71  99 SE16G38   29.82F
CORPUS CHRISTI TSTM      76  71  85 SE24G35   29.80R
KINGSVILLE NAS TSTM      74  72  93 S18       29.80F
COTULLA        CLOUDY    74  69  85 SE10      29.86R
LAREDO         CLOUDY    73  69  87 E14       29.85R
BROWNSVILLE    CLOUDY    80  75  84 SE7       29.85R
PORT ISABEL    CLOUDY    82  76  81 E13       29.84R
HEBBRONVILLE   NOT AVBL
MCALLEN        CLOUDY    84  74  71 E14       29.84R
WESLACO        NOT AVBL
FALFURRIAS     CLOUDY    76  72  89 SE13G20   29.83F
EDINBURG       NOT AVBL
$$




USA.gov is the U.S. government's official web portal to all federal, state and local government web resources and services.